Flag for Yemen Weather past 2 weeks in Ta'izz, Yemen

Now
64 °F

Passing clouds.


Feels Like: 64 °F
Forecast: 64 / 83 °F
Wind: 3 mph from East

Location: Taiz

Current Time: Oct 22, 2014 at 3:47:09 AM

Latest Report: Oct 22, 2014 at 12:00 AM


Visibility: N/A

Pressure: 30.18 "Hg

Humidity: 83%

Dew point: 59 °F

Location of Ta'izzLocation

Historic Weather in Ta'izz — Graph

°F

Ta'izz temperature yesterday

Maximum temperature yesterday: 81 °F (at 1:00 PM)
Minimum temperature yesterday: 64 °F (at 11:00 PM)
Average temperature yesterday: 73 °F

Past Weeks' High & Low Weather Summary

 TemperatureHumidityPressure
High84 °F (Oct 11, 1:00 PM)100% (Oct 7, 7:00 AM)30.18 "Hg (Oct 7, 7:00 AM)
Low57 °F (Oct 15, 6:00 AM)19% (Oct 11, 1:00 PM)30.01 "Hg (Oct 11, 3:00 PM)
Average71 °F66%30.11 "Hg
* Reported Midnight between Oct 6 and Oct 7 — Midnight between Oct 21 and Oct 22, Ta'izz, Weather by CustomWeather, © 2014

Note: Actual official high and low records may vary slightly from our data, if they occured in-between our weather recording intervals... More about our weather records

Advertising

Ta'izz weather history for previous 24 hours

 ConditionsComfort  
Time TempWeatherWind HumidityBarometerVisibility
12:00 AM
Oct 22
64 °FPassing clouds.3 mph83%30.18 "HgN/A
11:00 PM
Oct 21
64 °FPassing clouds.3 mph83%30.18 "HgN/A
10:00 PM66 °FPassing clouds.3 mph78%30.18 "HgN/A
9:00 PM68 °FPassing clouds.7 mph78%30.18 "HgN/A
8:00 PM68 °FPassing clouds.8 mph73%30.15 "HgN/A
7:00 PM70 °FPassing clouds.8 mph69%30.12 "HgN/A
6:00 PM72 °FPassing clouds.9 mph65%30.09 "HgN/A
5:00 PM75 °FScattered clouds.10 mph54%30.07 "HgN/A
4:00 PM79 °FScattered clouds.12 mph42%30.07 "HgN/A
3:00 PM79 °FScattered clouds.12 mph42%30.07 "HgN/A
2:00 PM81 °FScattered clouds.15 mph42%30.07 "HgN/A
1:00 PM81 °FScattered clouds.15 mph39%30.09 "HgN/A
12:00 PM79 °FPassing clouds.15 mph45%30.12 "HgN/A
11:00 AM77 °FPassing clouds.10 mph51%30.15 "HgN/A
10:00 AM73 °FPassing clouds.10 mph61%30.18 "HgN/A
9:00 AM72 °FPassing clouds.8 mph73%30.18 "HgN/A
8:00 AM68 °FPassing clouds.5 mph83%30.15 "HgN/A
Weather by CustomWeather, © 2014

See weather overviewHow to use our weather pages